Weather History for Richmond, KY

Change the Weather History Date:

Thursday, March 28, 2013

  Actual Average (KLOZ) Record (KLOZ)
Temperature  
Mean Temperature 38 °F 51 °F  
Max Temperature 48 °F 63 °F 83 °F (1983)
Min Temperature 28 °F 39 °F 20 °F (2001)
Degree Days  
Heating Degree Days 27 14  
Month to date heating degree days 507  
Since 1 July heating degree days 3783  
Cooling Degree Days 0 0  
Month to date cooling degree days 0  
Year to date cooling degree days 0  
Moisture  
Dew Point 24 °F    
Average Humidity 59    
Maximum Humidity 80    
Minimum Humidity 37    
Precipitation  
Precipitation 0.00 in 0.13 in 1.27 in (1967)
Month to date precipitation 3.65  
Year to date precipitation 10.90  
Sea Level Pressure  
Sea Level Pressure 30.32 in    
Wind  
Wind Speed 3 mph (West)    
Max Wind Speed 9 mph    
Max Gust Speed -    
Visibility 10 miles    
Events      
T = Trace of Precipitation, MM = Missing Value Source: NWS Daily Summary

Daily Weather History Graph

Daily Weather History Graph

Search for Another Location

Airport:

Trip Planner

Search our weather history database for the weather conditions in past years. The results will help you decide how hot, cold, wet, or windy it might be!

Date:

Astronomy

Mar. 28, 2013 Rise Set
Actual Time 7:28 AM EDT 7:56 PM EDT
Civil Twilight 7:02 AM EDT 8:23 PM EDT
Nautical Twilight 6:31 AM EDT 8:54 PM EDT
Astronomical Twilight 5:59 AM EDT 9:25 PM EDT
Moon 9:44 PM EDT (3/28) 7:57 AM EDT (3/28)
Length of Visible Light 13h 20m
Length of Day
12h 28m
Full, 98% of the Moon is Illuminated
Mar 28
Full
Apr 3
Last Quarter
Apr 10
New
Apr 18
First Quarter
Apr 25
Full

Hourly Weather History & Observations

Time (EDT) Temp. Windchill Dew Point Humidity Pressure Visibility Wind Dir Wind Speed Gust Speed Precip Events Conditions
12:15 AM 35.6 °F 31.7 °F 24.8 °F 65% 30.30 in 10.0 mi SSW 4.6 mph - N/A   Overcast
12:35 AM 37.4 °F 34.9 °F 23.0 °F 56% 30.30 in 10.0 mi SW 3.5 mph - N/A   Overcast
12:55 AM 35.6 °F 31.7 °F 23.0 °F 60% 30.29 in 10.0 mi WSW 4.6 mph - N/A   Overcast
1:15 AM 35.6 °F - 23.0 °F 60% 30.29 in 10.0 mi Calm Calm - N/A   Overcast
1:35 AM 35.6 °F - 23.0 °F 60% 30.29 in 10.0 mi Calm Calm - N/A   Mostly Cloudy
2:15 AM 35.6 °F 32.8 °F 23.0 °F 60% 30.29 in 10.0 mi WSW 3.5 mph - N/A   Scattered Clouds
2:35 AM 32.0 °F 27.5 °F 24.8 °F 75% 30.29 in 10.0 mi West 4.6 mph - N/A   Clear
2:55 AM 32.0 °F 27.5 °F 24.8 °F 75% 30.29 in 10.0 mi WSW 4.6 mph - N/A   Clear
3:15 AM 32.0 °F 27.5 °F 24.8 °F 75% 30.29 in 10.0 mi WSW 4.6 mph - N/A   Clear
3:35 AM 32.0 °F 28.7 °F 24.8 °F 75% 30.29 in 10.0 mi WSW 3.5 mph - N/A   Clear
3:55 AM 32.0 °F 27.5 °F 24.8 °F 75% 30.29 in 10.0 mi West 4.6 mph - N/A   Clear
4:15 AM 32.0 °F 27.5 °F 24.8 °F 75% 30.29 in 10.0 mi West 4.6 mph - N/A   Clear
4:35 AM 30.2 °F 26.7 °F 24.8 °F 80% 30.29 in 10.0 mi WNW 3.5 mph - N/A   Clear
4:55 AM 30.2 °F - 24.8 °F 80% 30.29 in 10.0 mi Calm Calm - N/A   Clear
5:15 AM 32.0 °F - 23.0 °F 69% 30.29 in 10.0 mi Calm Calm - N/A   Clear
5:35 AM 30.2 °F - 23.0 °F 75% 30.30 in 10.0 mi Calm Calm - N/A   Clear
5:55 AM 30.2 °F 26.7 °F 23.0 °F 75% 30.30 in 10.0 mi WSW 3.5 mph - N/A   Clear
6:15 AM 30.2 °F 26.7 °F 23.0 °F 75% 30.30 in 10.0 mi WSW 3.5 mph - N/A   Clear
6:35 AM 28.4 °F - 23.0 °F 80% 30.30 in 10.0 mi Calm Calm - N/A   Clear
6:55 AM 30.2 °F 26.7 °F 23.0 °F 75% 30.31 in 10.0 mi SW 3.5 mph - N/A   Clear
7:15 AM 28.4 °F - 23.0 °F 80% 30.32 in 10.0 mi Calm Calm - N/A   Clear
7:35 AM 28.4 °F 23.3 °F 23.0 °F 80% 30.32 in 10.0 mi SW 4.6 mph - N/A   Clear
8:15 AM 28.4 °F 24.6 °F 23.0 °F 80% 30.33 in 10.0 mi SSW 3.5 mph - N/A   Clear
8:35 AM 30.2 °F - 24.8 °F 80% 30.33 in 10.0 mi Calm Calm - N/A   Clear
8:55 AM 32.0 °F - 24.8 °F 75% 30.33 in 10.0 mi Calm Calm - N/A   Clear
9:15 AM 32.0 °F - 26.6 °F 80% 30.34 in 10.0 mi Calm Calm - N/A   Clear
9:35 AM 33.8 °F - 24.8 °F 70% 30.35 in 10.0 mi Calm Calm - N/A   Clear
9:55 AM 35.6 °F - 26.6 °F 70% 30.35 in 10.0 mi Calm Calm - N/A   Clear
10:15 AM 35.6 °F - 26.6 °F 70% 30.35 in 10.0 mi Calm Calm - N/A   Clear
10:35 AM 37.4 °F - 24.8 °F 60% 30.35 in 10.0 mi Calm Calm - N/A   Mostly Cloudy
10:55 AM 39.2 °F 35.9 °F 23.0 °F 52% 30.36 in 10.0 mi WNW 4.6 mph - N/A   Overcast
11:15 AM 39.2 °F 35.0 °F 23.0 °F 52% 30.36 in 10.0 mi North 5.8 mph - N/A   Mostly Cloudy
11:35 AM 39.2 °F 37.0 °F 21.2 °F 49% 30.36 in 10.0 mi North 3.5 mph - N/A   Scattered Clouds
11:55 AM 41.0 °F 36.4 °F 21.2 °F 45% 30.36 in 10.0 mi West 6.9 mph - N/A   Clear
12:15 PM 41.0 °F 38.0 °F 23.0 °F 49% 30.36 in 10.0 mi NNE 4.6 mph - N/A   Scattered Clouds
12:35 PM 41.0 °F - 21.2 °F 45% 30.36 in 10.0 mi Calm Calm - N/A   Scattered Clouds
12:55 PM 41.0 °F - 21.2 °F 45% 30.36 in 10.0 mi Calm Calm - N/A   Scattered Clouds
1:15 PM 42.8 °F - 21.2 °F 42% 30.35 in 10.0 mi Calm Calm - N/A   Mostly Cloudy
1:35 PM 44.6 °F 40.7 °F 23.0 °F 43% 30.35 in 10.0 mi NW 6.9 mph - N/A   Mostly Cloudy
1:55 PM 44.6 °F 39.7 °F 24.8 °F 46% 30.35 in 10.0 mi NW 9.2 mph - N/A   Mostly Cloudy
2:15 PM 44.6 °F 39.7 °F 23.0 °F 43% 30.34 in 10.0 mi WNW 9.2 mph - N/A   Mostly Cloudy
2:35 PM 46.4 °F 44.3 °F 23.0 °F 40% 30.34 in 10.0 mi West 4.6 mph - N/A   Scattered Clouds
3:35 PM 46.4 °F 42.4 °F 23.0 °F 40% 30.32 in 10.0 mi NW 8.1 mph - N/A   Scattered Clouds
3:55 PM 46.4 °F - 23.0 °F 40% 30.31 in 10.0 mi Calm Calm - N/A   Scattered Clouds
4:15 PM 46.4 °F 45.2 °F 23.0 °F 40% 30.31 in 10.0 mi West 3.5 mph - N/A   Scattered Clouds
4:35 PM 46.4 °F 43.5 °F 23.0 °F 40% 30.31 in 10.0 mi WNW 5.8 mph - N/A   Scattered Clouds
4:55 PM 48.2 °F - 23.0 °F 37% 30.30 in 10.0 mi West 4.6 mph - N/A   Scattered Clouds
5:15 PM 48.2 °F - 23.0 °F 37% 30.30 in 10.0 mi NW 6.9 mph - N/A   Clear
5:35 PM 48.2 °F - 23.0 °F 37% 30.29 in 10.0 mi WNW 5.8 mph - N/A   Clear
5:55 PM 48.2 °F - 23.0 °F 37% 30.29 in 10.0 mi NNW 4.6 mph - N/A   Clear
6:15 PM 48.2 °F - 23.0 °F 37% 30.28 in 10.0 mi NW 9.2 mph - N/A   Clear
6:35 PM 46.4 °F 44.3 °F 23.0 °F 40% 30.29 in 10.0 mi WNW 4.6 mph - N/A   Clear
7:15 PM 46.4 °F - 23.0 °F 40% 30.29 in 10.0 mi Calm Calm - N/A   Clear
7:35 PM 46.4 °F 45.2 °F 24.8 °F 43% 30.30 in 10.0 mi WSW 3.5 mph - N/A   Clear
8:15 PM 44.6 °F - 24.8 °F 46% 30.30 in 10.0 mi Calm Calm - N/A   Clear
8:35 PM 42.8 °F - 24.8 °F 49% 30.30 in 10.0 mi Calm Calm - N/A   Clear
8:55 PM 42.8 °F - 24.8 °F 49% 30.30 in 10.0 mi Calm Calm - N/A   Clear
9:15 PM 42.8 °F - 24.8 °F 49% 30.30 in 10.0 mi Calm Calm - N/A   Clear
9:35 PM 41.0 °F - 24.8 °F 53% 30.31 in 10.0 mi Calm Calm - N/A   Clear
10:15 PM 39.2 °F 37.0 °F 26.6 °F 61% 30.32 in 10.0 mi SSE 3.5 mph - N/A   Clear
10:35 PM 39.2 °F 37.0 °F 26.6 °F 61% 30.32 in 10.0 mi SE 3.5 mph - N/A   Clear
11:15 PM 37.4 °F 34.9 °F 26.6 °F 65% 30.32 in 10.0 mi SSE 3.5 mph - N/A   Clear
11:35 PM 35.6 °F - 26.6 °F 70% 30.32 in 10.0 mi Calm Calm - N/A   Clear